Time,TemperatureF,DewpointF,PressureIn,WindDirection,WindDirectionDegrees,WindSpeedMPH,WindSpeedGustMPH,Humidity,HourlyPrecipIn,Conditions,Clouds,dailyrainin,SoftwareType,DateUTC
2013-10-18 00:01:00,34.4,27.0,30.28,NNE,26,0.0,13.0,74,0.00,,,0.00,Wunderground v.1.15,2013-10-18 05:01:00,
2013-10-18 00:07:00,34.2,27.1,30.27,NNE,26,0.0,13.0,75,0.00,,,0.00,Wunderground v.1.15,2013-10-18 05:07:00,
2013-10-18 00:12:00,34.1,27.0,30.27,NNE,26,0.0,13.0,75,0.00,,,0.00,Wunderground v.1.15,2013-10-18 05:12:00,
2013-10-18 00:17:00,34.2,27.1,30.27,NNE,26,0.0,13.0,75,0.00,,,0.00,Wunderground v.1.15,2013-10-18 05:17:00,
2013-10-18 00:22:00,34.2,27.1,30.27,NNE,26,0.0,13.0,75,0.00,,,0.00,Wunderground v.1.15,2013-10-18 05:22:00,
2013-10-18 00:28:00,33.9,27.1,30.27,NNE,26,0.0,13.0,76,0.00,,,0.00,Wunderground v.1.15,2013-10-18 05:28:00,
2013-10-18 00:33:00,33.8,27.0,30.27,NNE,26,0.0,13.0,76,0.00,,,0.00,Wunderground v.1.15,2013-10-18 05:33:00,
2013-10-18 00:39:00,33.7,26.6,30.27,NNE,26,1.0,13.0,75,0.00,,,0.00,Wunderground v.1.15,2013-10-18 05:39:00,
2013-10-18 00:44:00,33.2,26.5,30.28,NNE,26,1.0,13.0,76,0.00,,,0.00,Wunderground v.1.15,2013-10-18 05:44:00,
2013-10-18 00:49:00,32.4,26.0,30.28,NNE,26,1.0,13.0,77,0.00,,,0.00,Wunderground v.1.15,2013-10-18 05:49:00,
2013-10-18 00:55:00,32.2,26.4,30.28,NNE,26,1.0,13.0,79,0.00,,,0.00,Wunderground v.1.15,2013-10-18 05:55:00,
2013-10-18 01:00:00,32.2,26.4,30.28,NNE,26,1.0,1.0,79,0.00,,,0.00,Wunderground v.1.15,2013-10-18 06:00:00,
2013-10-18 01:06:00,32.5,26.7,30.28,NNE,26,0.0,13.0,79,0.00,,,0.00,Wunderground v.1.15,2013-10-18 06:06:00,
2013-10-18 01:11:00,32.6,26.8,30.28,NNE,26,0.0,13.0,79,0.00,,,0.00,Wunderground v.1.15,2013-10-18 06:11:00,
2013-10-18 01:17:00,32.8,27.0,30.28,NNE,26,0.0,13.0,79,0.00,,,0.00,Wunderground v.1.15,2013-10-18 06:17:00,
2013-10-18 01:22:00,32.8,27.0,30.27,NNE,26,0.0,13.0,79,0.00,,,0.00,Wunderground v.1.15,2013-10-18 06:22:00,
2013-10-18 01:27:00,32.9,27.1,30.28,NNE,26,1.0,13.0,79,0.00,,,0.00,Wunderground v.1.15,2013-10-18 06:27:00,
2013-10-18 01:33:00,32.8,27.0,30.27,NNE,26,0.0,13.0,79,0.00,,,0.00,Wunderground v.1.15,2013-10-18 06:33:00,
2013-10-18 01:38:00,32.8,27.0,30.27,NNE,26,1.0,13.0,79,0.00,,,0.00,Wunderground v.1.15,2013-10-18 06:38:00,
2013-10-18 01:44:00,32.7,26.9,30.27,NNE,26,1.0,13.0,79,0.00,,,0.00,Wunderground v.1.15,2013-10-18 06:44:00,
2013-10-18 01:50:00,32.5,26.7,30.27,NNE,26,0.0,13.0,79,0.00,,,0.00,Wunderground v.1.15,2013-10-18 06:50:00,
2013-10-18 01:55:00,32.4,26.6,30.27,NNE,26,0.0,13.0,79,0.00,,,0.00,Wunderground v.1.15,2013-10-18 06:55:00,
2013-10-18 02:00:00,32.5,26.7,30.27,NNE,26,1.0,1.0,79,0.00,,,0.00,Wunderground v.1.15,2013-10-18 07:00:00,
2013-10-18 02:06:00,32.5,26.7,30.27,NNE,26,1.0,13.0,79,0.00,,,0.00,Wunderground v.1.15,2013-10-18 07:06:00,
2013-10-18 02:11:00,32.4,26.6,30.27,NNE,26,1.0,13.0,79,0.00,,,0.00,Wunderground v.1.15,2013-10-18 07:11:00,
2013-10-18 02:17:00,32.2,26.4,30.27,NNE,26,1.0,13.0,79,0.00,,,0.00,Wunderground v.1.15,2013-10-18 07:17:00,
2013-10-18 02:22:00,32.1,26.6,30.27,NNE,26,1.0,13.0,80,0.00,,,0.00,Wunderground v.1.15,2013-10-18 07:22:00,
2013-10-18 02:27:00,31.9,26.4,30.28,NNE,26,1.0,13.0,80,0.00,,,0.00,Wunderground v.1.15,2013-10-18 07:27:00,
2013-10-18 02:33:00,31.9,26.7,30.30,NNE,26,1.0,13.0,81,0.00,,,0.00,Wunderground v.1.15,2013-10-18 07:33:00,
2013-10-18 02:38:00,32.2,27.3,30.30,NNE,26,1.0,13.0,82,0.00,,,0.00,Wunderground v.1.15,2013-10-18 07:38:00,
2013-10-18 02:44:00,32.5,27.6,30.30,NNE,26,1.0,13.0,82,0.00,,,0.00,Wunderground v.1.15,2013-10-18 07:44:00,
2013-10-18 02:49:00,32.6,27.4,30.30,NNE,26,1.0,13.0,81,0.00,,,0.00,Wunderground v.1.15,2013-10-18 07:49:00,
2013-10-18 02:54:00,32.7,27.5,30.29,NNE,26,0.0,13.0,81,0.00,,,0.00,Wunderground v.1.15,2013-10-18 07:54:00,
2013-10-18 03:00:00,32.9,27.7,30.29,NNE,26,0.0,13.0,81,0.00,,,0.00,Wunderground v.1.15,2013-10-18 08:00:00,
2013-10-18 03:06:00,32.9,27.7,30.29,NNE,26,0.0,13.0,81,0.00,,,0.00,Wunderground v.1.15,2013-10-18 08:06:00,
2013-10-18 03:11:00,32.9,27.7,30.30,NNE,26,0.0,13.0,81,0.00,,,0.00,Wunderground v.1.15,2013-10-18 08:11:00,
2013-10-18 03:17:00,33.0,27.8,30.30,NNE,26,0.0,13.0,81,0.00,,,0.00,Wunderground v.1.15,2013-10-18 08:17:00,
2013-10-18 03:22:00,32.9,27.7,30.30,NNE,26,1.0,13.0,81,0.00,,,0.00,Wunderground v.1.15,2013-10-18 08:22:00,
2013-10-18 03:28:00,32.9,27.7,30.30,NNE,26,1.0,13.0,81,0.00,,,0.00,Wunderground v.1.15,2013-10-18 08:28:00,
2013-10-18 03:33:00,33.0,27.8,30.29,NNE,26,0.0,13.0,81,0.00,,,0.00,Wunderground v.1.15,2013-10-18 08:33:00,
2013-10-18 03:38:00,33.0,27.8,30.29,NNE,26,0.0,13.0,81,0.00,,,0.00,Wunderground v.1.15,2013-10-18 08:38:00,
2013-10-18 03:44:00,33.2,28.0,30.28,NNE,26,0.0,13.0,81,0.00,,,0.00,Wunderground v.1.15,2013-10-18 08:44:00,
2013-10-18 03:49:00,33.4,28.2,30.27,NNE,26,0.0,13.0,81,0.00,,,0.00,Wunderground v.1.15,2013-10-18 08:49:00,
2013-10-18 03:55:00,33.6,28.1,30.28,NNE,26,0.0,13.0,80,0.00,,,0.00,Wunderground v.1.15,2013-10-18 08:55:00,
2013-10-18 04:00:00,33.6,28.1,30.27,NNE,26,0.0,13.0,80,0.00,,,0.00,Wunderground v.1.15,2013-10-18 09:00:00,
2013-10-18 04:05:00,33.6,28.1,30.26,NNE,26,0.0,13.0,80,0.00,,,0.00,Wunderground v.1.15,2013-10-18 09:05:00,
2013-10-18 04:11:00,33.5,28.0,30.26,NNE,26,0.0,13.0,80,0.00,,,0.00,Wunderground v.1.15,2013-10-18 09:11:00,
2013-10-18 04:16:00,33.4,27.9,30.26,NNE,26,0.0,13.0,80,0.00,,,0.00,Wunderground v.1.15,2013-10-18 09:16:00,
2013-10-18 04:22:00,33.4,27.9,30.26,NNE,26,0.0,13.0,80,0.00,,,0.00,Wunderground v.1.15,2013-10-18 09:22:00,
2013-10-18 04:27:00,33.4,27.9,30.26,NNE,26,0.0,13.0,80,0.00,,,0.00,Wunderground v.1.15,2013-10-18 09:27:00,
2013-10-18 04:33:00,33.4,27.9,30.26,NNE,26,0.0,13.0,80,0.00,,,0.00,Wunderground v.1.15,2013-10-18 09:33:00,
2013-10-18 04:38:00,33.4,27.9,30.27,NNE,26,0.0,13.0,80,0.00,,,0.00,Wunderground v.1.15,2013-10-18 09:38:00,
2013-10-18 04:43:00,33.5,28.0,30.26,NNE,26,0.0,13.0,80,0.00,,,0.00,Wunderground v.1.15,2013-10-18 09:43:00,
2013-10-18 04:49:00,33.6,28.1,30.27,NNE,26,0.0,13.0,80,0.00,,,0.00,Wunderground v.1.15,2013-10-18 09:49:00,
2013-10-18 04:54:00,33.6,28.1,30.27,NNE,26,1.0,13.0,80,0.00,,,0.00,Wunderground v.1.15,2013-10-18 09:54:00,
2013-10-18 05:00:00,33.5,28.3,30.27,NNE,26,1.0,13.0,81,0.00,,,0.00,Wunderground v.1.15,2013-10-18 10:00:00,
2013-10-18 05:05:00,33.5,28.3,30.28,NNE,26,1.0,13.0,81,0.00,,,0.00,Wunderground v.1.15,2013-10-18 10:05:00,
2013-10-18 05:10:00,33.5,28.3,30.27,NNE,26,1.0,1.0,81,0.00,,,0.00,Wunderground v.1.15,2013-10-18 10:10:00,
2013-10-18 05:16:00,33.5,28.3,30.28,NNE,26,0.0,13.0,81,0.00,,,0.00,Wunderground v.1.15,2013-10-18 10:16:00,
2013-10-18 05:21:00,33.6,28.4,30.28,NNE,26,0.0,13.0,81,0.00,,,0.00,Wunderground v.1.15,2013-10-18 10:21:00,
2013-10-18 05:26:00,33.7,28.2,30.27,NNE,26,0.0,13.0,80,0.00,,,0.00,Wunderground v.1.15,2013-10-18 10:26:00,
2013-10-18 05:32:00,33.8,28.3,30.27,NNE,26,0.0,13.0,80,0.00,,,0.00,Wunderground v.1.15,2013-10-18 10:32:00,
2013-10-18 05:37:00,33.9,28.4,30.27,NNE,26,0.0,13.0,80,0.00,,,0.00,Wunderground v.1.15,2013-10-18 10:37:00,
2013-10-18 05:43:00,33.8,28.3,30.28,NNE,26,0.0,13.0,80,0.00,,,0.00,Wunderground v.1.15,2013-10-18 10:43:00,
2013-10-18 05:48:00,33.6,28.1,30.28,NNE,26,1.0,13.0,80,0.00,,,0.00,Wunderground v.1.15,2013-10-18 10:48:00,
2013-10-18 05:54:00,33.5,27.7,30.28,NNE,26,2.0,13.0,79,0.00,,,0.00,Wunderground v.1.15,2013-10-18 10:54:00,
2013-10-18 05:59:00,33.4,27.9,30.28,NNE,26,1.0,13.0,80,0.00,,,0.00,Wunderground v.1.15,2013-10-18 10:59:00,
2013-10-18 06:05:00,33.5,27.7,30.29,NNE,26,2.0,13.0,79,0.00,,,0.00,Wunderground v.1.15,2013-10-18 11:05:00,
2013-10-18 06:10:00,33.6,27.8,30.29,NNE,26,1.0,13.0,79,0.00,,,0.00,Wunderground v.1.15,2013-10-18 11:10:00,
2013-10-18 06:15:00,33.6,27.8,30.29,NNE,26,1.0,13.0,79,0.00,,,0.00,Wunderground v.1.15,2013-10-18 11:15:00,
2013-10-18 06:21:00,33.5,27.7,30.30,NNE,22,2.0,13.0,79,0.00,,,0.00,Wunderground v.1.15,2013-10-18 11:21:00,
2013-10-18 06:26:00,33.3,27.5,30.30,NNE,12,2.0,13.0,79,0.00,,,0.00,Wunderground v.1.15,2013-10-18 11:26:00,
2013-10-18 06:32:00,33.2,27.7,30.29,NNE,12,2.0,13.0,80,0.00,,,0.00,Wunderground v.1.15,2013-10-18 11:32:00,
2013-10-18 06:37:00,33.3,27.8,30.29,NNE,12,1.0,13.0,80,0.00,,,0.00,Wunderground v.1.15,2013-10-18 11:37:00,
2013-10-18 06:42:00,33.4,27.6,30.29,NNE,12,1.0,13.0,79,0.00,,,0.00,Wunderground v.1.15,2013-10-18 11:42:00,
2013-10-18 06:48:00,33.5,28.0,30.29,NNE,12,1.0,13.0,80,0.00,,,0.00,Wunderground v.1.15,2013-10-18 11:48:00,
2013-10-18 06:53:00,33.5,28.0,30.29,NNE,12,0.0,13.0,80,0.00,,,0.00,Wunderground v.1.15,2013-10-18 11:53:00,
2013-10-18 06:59:00,33.3,27.8,30.28,NNE,12,1.0,13.0,80,0.00,,,0.00,Wunderground v.1.15,2013-10-18 11:59:00,
2013-10-18 07:04:00,33.2,28.0,30.28,NNE,12,1.0,13.0,81,0.00,,,0.00,Wunderground v.1.15,2013-10-18 12:04:00,
2013-10-18 07:10:00,33.1,27.9,30.29,NNE,12,1.0,1.0,81,0.00,,,0.00,Wunderground v.1.15,2013-10-18 12:10:00,
2013-10-18 07:15:00,33.2,28.0,30.29,NNE,12,1.0,13.0,81,0.00,,,0.00,Wunderground v.1.15,2013-10-18 12:15:00,
2013-10-18 07:20:00,33.1,27.9,30.29,NNE,12,1.0,13.0,81,0.00,,,0.00,Wunderground v.1.15,2013-10-18 12:20:00,
2013-10-18 07:26:00,33.0,27.8,30.29,NNE,12,2.0,13.0,81,0.00,,,0.00,Wunderground v.1.15,2013-10-18 12:26:00,
2013-10-18 07:31:00,33.0,28.1,30.28,NNE,12,1.0,13.0,82,0.00,,,0.00,Wunderground v.1.15,2013-10-18 12:31:00,
2013-10-18 07:37:00,33.1,27.9,30.28,NNE,12,1.0,13.0,81,0.00,,,0.00,Wunderground v.1.15,2013-10-18 12:37:00,
2013-10-18 07:42:00,33.1,28.2,30.28,NNE,12,1.0,13.0,82,0.00,,,0.00,Wunderground v.1.15,2013-10-18 12:42:00,
2013-10-18 07:47:00,33.1,28.2,30.28,NNE,12,1.0,13.0,82,0.00,,,0.00,Wunderground v.1.15,2013-10-18 12:47:00,
2013-10-18 07:53:00,33.0,28.1,30.29,NNE,12,1.0,13.0,82,0.00,,,0.00,Wunderground v.1.15,2013-10-18 12:53:00,
2013-10-18 07:59:00,32.9,28.0,30.29,North,11,2.0,13.0,82,0.00,,,0.00,Wunderground v.1.15,2013-10-18 12:59:00,
2013-10-18 08:04:00,32.9,28.3,30.29,North,11,2.0,13.0,83,0.00,,,0.00,Wunderground v.1.15,2013-10-18 13:04:00,
2013-10-18 08:10:00,32.9,28.3,30.29,North,11,1.0,13.0,83,0.00,,,0.00,Wunderground v.1.15,2013-10-18 13:10:00,
2013-10-18 08:15:00,33.0,28.4,30.30,North,11,1.0,13.0,83,0.00,,,0.00,Wunderground v.1.15,2013-10-18 13:15:00,
2013-10-18 08:21:00,32.9,28.3,30.30,North,11,1.0,13.0,83,0.00,,,0.00,Wunderground v.1.15,2013-10-18 13:21:00,
2013-10-18 08:26:00,32.9,28.3,30.30,North,11,1.0,13.0,83,0.00,,,0.00,Wunderground v.1.15,2013-10-18 13:26:00,
2013-10-18 08:32:00,32.9,28.3,30.30,North,11,1.0,13.0,83,0.00,,,0.00,Wunderground v.1.15,2013-10-18 13:32:00,
2013-10-18 08:37:00,33.0,28.7,30.29,North,11,1.0,13.0,84,0.00,,,0.00,Wunderground v.1.15,2013-10-18 13:37:00,
2013-10-18 08:43:00,33.2,28.9,30.29,North,11,1.0,13.0,84,0.00,,,0.00,Wunderground v.1.15,2013-10-18 13:43:00,
2013-10-18 08:48:00,33.4,29.1,30.29,North,11,1.0,13.0,84,0.00,,,0.00,Wunderground v.1.15,2013-10-18 13:48:00,
2013-10-18 08:54:00,33.7,29.4,30.29,North,11,1.0,13.0,84,0.00,,,0.00,Wunderground v.1.15,2013-10-18 13:54:00,
2013-10-18 08:59:00,33.9,29.6,30.29,North,11,1.0,13.0,84,0.00,,,0.00,Wunderground v.1.15,2013-10-18 13:59:00,
2013-10-18 09:04:00,34.3,30.0,30.30,North,11,1.0,13.0,84,0.00,,,0.00,Wunderground v.1.15,2013-10-18 14:04:00,
2013-10-18 09:09:00,34.7,30.4,30.30,North,11,2.0,13.0,84,0.00,,,0.00,Wunderground v.1.15,2013-10-18 14:09:00,
2013-10-18 09:15:00,35.2,30.9,30.30,North,10,2.0,13.0,84,0.00,,,0.00,Wunderground v.1.15,2013-10-18 14:15:00,
2013-10-18 09:20:00,35.8,31.4,30.31,North,5,3.0,13.0,84,0.00,,,0.00,Wunderground v.1.15,2013-10-18 14:20:00,
2013-10-18 09:26:00,36.5,31.8,30.30,NNW,340,3.0,13.0,83,0.00,,,0.00,Wunderground v.1.15,2013-10-18 14:26:00,
2013-10-18 09:31:00,37.2,32.2,30.30,NNW,336,3.0,13.0,82,0.00,,,0.00,Wunderground v.1.15,2013-10-18 14:31:00,
2013-10-18 09:37:00,37.9,32.6,30.30,NNW,335,3.0,13.0,81,0.00,,,0.00,Wunderground v.1.15,2013-10-18 14:37:00,
2013-10-18 09:42:00,38.4,32.5,30.30,NW,319,4.0,13.0,79,0.00,,,0.00,Wunderground v.1.15,2013-10-18 14:42:00,
2013-10-18 09:47:00,38.7,32.7,30.30,NW,319,4.0,13.0,79,0.00,,,0.00,Wunderground v.1.15,2013-10-18 14:47:00,
2013-10-18 09:53:00,38.8,32.5,30.30,WNW,301,4.0,13.0,78,0.00,,,0.00,Wunderground v.1.15,2013-10-18 14:53:00,
2013-10-18 09:58:00,38.9,32.6,30.30,WNW,301,5.0,13.0,78,0.00,,,0.00,Wunderground v.1.15,2013-10-18 14:58:00,
2013-10-18 10:04:00,39.0,32.4,30.30,WNW,301,4.0,13.0,77,0.00,,,0.00,Wunderground v.1.15,2013-10-18 15:04:00,
2013-10-18 10:09:00,39.1,32.5,30.30,WNW,300,5.0,13.0,77,0.00,,,0.00,Wunderground v.1.15,2013-10-18 15:09:00,
2013-10-18 10:15:00,39.2,32.6,30.30,WNW,300,4.0,13.0,77,0.00,,,0.00,Wunderground v.1.15,2013-10-18 15:15:00,
2013-10-18 10:20:00,39.8,33.2,30.30,WNW,300,4.0,4.0,77,0.00,,,0.00,Wunderground v.1.15,2013-10-18 15:20:00,
2013-10-18 10:25:00,40.4,33.4,30.30,WNW,300,4.0,13.0,76,0.00,,,0.00,Wunderground v.1.15,2013-10-18 15:25:00,
2013-10-18 10:31:00,40.6,33.0,30.30,NW,321,6.0,13.0,74,0.00,,,0.00,Wunderground v.1.15,2013-10-18 15:31:00,
2013-10-18 10:36:00,40.7,32.7,30.29,NW,307,7.0,13.0,73,0.00,,,0.00,Wunderground v.1.15,2013-10-18 15:36:00,
2013-10-18 10:42:00,40.9,32.6,30.29,WNW,302,5.0,13.0,72,0.00,,,0.00,Wunderground v.1.15,2013-10-18 15:42:00,
2013-10-18 10:47:00,40.9,32.2,30.29,NW,315,5.0,13.0,71,0.00,,,0.00,Wunderground v.1.15,2013-10-18 15:47:00,
2013-10-18 10:53:00,41.3,32.6,30.29,NW,316,6.0,13.0,71,0.00,,,0.00,Wunderground v.1.15,2013-10-18 15:53:00,
2013-10-18 10:59:00,41.9,33.2,30.29,NW,316,5.0,13.0,71,0.00,,,0.00,Wunderground v.1.15,2013-10-18 15:59:00,
2013-10-18 11:04:00,42.4,32.6,30.29,NW,313,5.0,13.0,68,0.00,,,0.00,Wunderground v.1.15,2013-10-18 16:04:00,
2013-10-18 11:10:00,42.7,32.1,30.29,NW,313,4.0,13.0,66,0.00,,,0.00,Wunderground v.1.15,2013-10-18 16:10:00,
2013-10-18 11:15:00,42.9,31.2,30.29,NW,318,5.0,13.0,63,0.00,,,0.00,Wunderground v.1.15,2013-10-18 16:15:00,
2013-10-18 11:20:00,43.1,30.1,30.29,NW,317,5.0,5.0,60,0.00,,,0.00,Wunderground v.1.15,2013-10-18 16:20:00,
2013-10-18 11:26:00,43.5,30.5,30.29,NW,317,5.0,13.0,60,0.00,,,0.00,Wunderground v.1.15,2013-10-18 16:26:00,
2013-10-18 11:31:00,43.9,30.1,30.29,NW,317,4.0,5.0,58,0.00,,,0.00,Wunderground v.1.15,2013-10-18 16:31:00,
2013-10-18 11:37:00,44.2,28.6,30.29,NW,317,4.0,13.0,54,0.00,,,0.00,Wunderground v.1.15,2013-10-18 16:37:00,
2013-10-18 11:42:00,44.3,28.2,30.29,NW,317,4.0,13.0,53,0.00,,,0.00,Wunderground v.1.15,2013-10-18 16:42:00,
2013-10-18 11:48:00,44.5,27.5,30.28,NW,317,5.0,13.0,51,0.00,,,0.00,Wunderground v.1.15,2013-10-18 16:48:00,
2013-10-18 11:53:00,44.9,27.8,30.29,NW,315,5.0,13.0,51,0.00,,,0.00,Wunderground v.1.15,2013-10-18 16:53:00,
2013-10-18 11:59:00,45.0,27.5,30.29,NW,315,5.0,13.0,50,0.00,,,0.00,Wunderground v.1.15,2013-10-18 16:59:00,
2013-10-18 12:04:00,45.0,26.5,30.28,NW,315,4.0,13.0,48,0.00,,,0.00,Wunderground v.1.15,2013-10-18 17:04:00,
2013-10-18 12:10:00,45.3,27.7,30.28,NW,315,3.0,3.0,50,0.00,,,0.00,Wunderground v.1.15,2013-10-18 17:10:00,
2013-10-18 12:15:00,45.4,28.3,30.28,NW,305,3.0,13.0,51,0.00,,,0.00,Wunderground v.1.15,2013-10-18 17:15:00,
2013-10-18 12:20:00,45.4,26.8,30.28,WNW,303,4.0,13.0,48,0.00,,,0.00,Wunderground v.1.15,2013-10-18 17:20:00,
2013-10-18 12:26:00,45.5,27.4,30.28,WNW,303,4.0,13.0,49,0.00,,,0.00,Wunderground v.1.15,2013-10-18 17:26:00,
2013-10-18 12:31:00,45.8,27.2,30.28,NW,324,4.0,13.0,48,0.00,,,0.00,Wunderground v.1.15,2013-10-18 17:31:00,
2013-10-18 12:36:00,46.1,28.0,30.28,NW,324,4.0,13.0,49,0.00,,,0.00,Wunderground v.1.15,2013-10-18 17:36:00,
2013-10-18 12:41:00,46.1,28.0,30.28,NW,305,4.0,13.0,49,0.00,,,0.00,Wunderground v.1.15,2013-10-18 17:41:00,
2013-10-18 12:46:00,46.3,28.2,30.27,NW,306,4.0,13.0,49,0.00,,,0.00,Wunderground v.1.15,2013-10-18 17:46:00,
2013-10-18 12:52:00,46.4,28.8,30.27,NW,306,3.0,13.0,50,0.00,,,0.00,Wunderground v.1.15,2013-10-18 17:52:00,
2013-10-18 12:58:00,46.7,30.0,30.27,WNW,292,3.0,13.0,52,0.00,,,0.00,Wunderground v.1.15,2013-10-18 17:58:00,
2013-10-18 13:03:00,47.0,30.3,30.27,NNW,336,5.0,13.0,52,0.00,,,0.00,Wunderground v.1.15,2013-10-18 18:03:00,
2013-10-18 13:08:00,47.3,30.1,30.26,NNW,336,4.0,13.0,51,0.00,,,0.00,Wunderground v.1.15,2013-10-18 18:08:00,
2013-10-18 13:14:00,47.5,30.7,30.26,NNW,336,3.0,13.0,52,0.00,,,0.00,Wunderground v.1.15,2013-10-18 18:14:00,
2013-10-18 13:19:00,47.8,30.0,30.26,NNW,330,3.0,13.0,50,0.00,,,0.00,Wunderground v.1.15,2013-10-18 18:19:00,
2013-10-18 13:25:00,48.0,29.7,30.26,NNW,327,3.0,13.0,49,0.00,,,0.00,Wunderground v.1.15,2013-10-18 18:25:00,
2013-10-18 13:30:00,48.3,30.0,30.26,NW,325,4.0,13.0,49,0.00,,,0.00,Wunderground v.1.15,2013-10-18 18:30:00,
2013-10-18 13:36:00,48.6,30.8,30.25,NW,323,5.0,13.0,50,0.00,,,0.00,Wunderground v.1.15,2013-10-18 18:36:00,
2013-10-18 13:41:00,49.2,30.8,30.25,NW,323,4.0,13.0,49,0.00,,,0.00,Wunderground v.1.15,2013-10-18 18:41:00,
2013-10-18 13:47:00,49.4,29.5,30.25,NW,309,4.0,13.0,46,0.00,,,0.00,Wunderground v.1.15,2013-10-18 18:47:00,
2013-10-18 13:52:00,49.4,31.0,30.24,West,272,5.0,13.0,49,0.00,,,0.00,Wunderground v.1.15,2013-10-18 18:52:00,
2013-10-18 13:57:00,49.6,31.2,30.24,West,272,4.0,13.0,49,0.00,,,0.00,Wunderground v.1.15,2013-10-18 18:57:00,
2013-10-18 14:03:00,49.3,30.9,30.23,West,272,4.0,13.0,49,0.00,,,0.00,Wunderground v.1.15,2013-10-18 19:03:00,
2013-10-18 14:08:00,48.9,30.6,30.23,West,272,4.0,13.0,49,0.00,,,0.00,Wunderground v.1.15,2013-10-18 19:08:00,
2013-10-18 14:13:00,49.0,30.7,30.23,West,267,5.0,13.0,49,0.00,,,0.00,Wunderground v.1.15,2013-10-18 19:13:00,
2013-10-18 14:19:00,49.1,30.7,30.23,West,267,4.0,13.0,49,0.00,,,0.00,Wunderground v.1.15,2013-10-18 19:19:00,
2013-10-18 14:24:00,49.0,31.2,30.23,West,267,4.0,13.0,50,0.00,,,0.00,Wunderground v.1.15,2013-10-18 19:24:00,
2013-10-18 14:29:00,49.0,31.6,30.22,West,267,3.0,13.0,51,0.00,,,0.00,Wunderground v.1.15,2013-10-18 19:29:00,
2013-10-18 14:35:00,48.6,30.8,30.22,West,267,3.0,13.0,50,0.00,,,0.00,Wunderground v.1.15,2013-10-18 19:35:00,
2013-10-18 14:40:00,48.4,30.6,30.22,West,267,4.0,4.0,50,0.00,,,0.00,Wunderground v.1.15,2013-10-18 19:40:00,
2013-10-18 14:46:00,48.5,31.2,30.22,West,267,4.0,13.0,51,0.00,,,0.00,Wunderground v.1.15,2013-10-18 19:46:00,
2013-10-18 14:51:00,48.5,30.7,30.22,West,267,4.0,13.0,50,0.00,,,0.00,Wunderground v.1.15,2013-10-18 19:51:00,
2013-10-18 14:57:00,48.5,31.2,30.21,West,267,3.0,13.0,51,0.00,,,0.00,Wunderground v.1.15,2013-10-18 19:57:00,
2013-10-18 15:02:00,48.6,30.8,30.21,West,267,3.0,13.0,50,0.00,,,0.00,Wunderground v.1.15,2013-10-18 20:02:00,
2013-10-18 15:07:00,48.9,31.5,30.21,West,267,3.0,13.0,51,0.00,,,0.00,Wunderground v.1.15,2013-10-18 20:07:00,
2013-10-18 15:13:00,49.2,31.8,30.21,West,267,4.0,13.0,51,0.00,,,0.00,Wunderground v.1.15,2013-10-18 20:13:00,
2013-10-18 15:19:00,49.6,31.2,30.20,NNW,331,3.0,13.0,49,0.00,,,0.00,Wunderground v.1.15,2013-10-18 20:19:00,
2013-10-18 15:24:00,49.7,29.7,30.20,NW,325,5.0,13.0,46,0.00,,,0.00,Wunderground v.1.15,2013-10-18 20:24:00,
2013-10-18 15:29:00,49.8,30.4,30.20,NW,316,5.0,13.0,47,0.00,,,0.00,Wunderground v.1.15,2013-10-18 20:29:00,
2013-10-18 15:35:00,49.9,30.5,30.20,NW,319,5.0,13.0,47,0.00,,,0.00,Wunderground v.1.15,2013-10-18 20:35:00,
2013-10-18 15:40:00,50.3,30.3,30.20,NW,308,5.0,5.0,46,0.00,,,0.00,Wunderground v.1.15,2013-10-18 20:40:00,
2013-10-18 15:46:00,50.6,30.6,30.19,NW,317,5.0,13.0,46,0.00,,,0.00,Wunderground v.1.15,2013-10-18 20:46:00,
2013-10-18 15:51:00,50.7,30.7,30.19,WNW,290,5.0,10.0,46,0.00,,,0.00,Wunderground v.1.15,2013-10-18 20:51:00,
2013-10-18 15:56:00,50.4,30.9,30.20,NW,306,6.0,13.0,47,0.00,,,0.00,Wunderground v.1.15,2013-10-18 20:56:00,
2013-10-18 16:02:00,49.5,31.6,30.20,NNW,333,6.0,13.0,50,0.00,,,0.00,Wunderground v.1.15,2013-10-18 21:02:00,
2013-10-18 16:07:00,48.9,31.5,30.20,NW,319,7.0,13.0,51,0.00,,,0.00,Wunderground v.1.15,2013-10-18 21:07:00,
2013-10-18 16:12:00,48.6,31.3,30.20,NW,321,7.0,13.0,51,0.00,,,0.00,Wunderground v.1.15,2013-10-18 21:12:00,
2013-10-18 16:18:00,48.2,32.3,30.21,North,5,8.0,17.0,54,0.00,,,0.00,Wunderground v.1.15,2013-10-18 21:18:00,
2013-10-18 16:23:00,45.5,33.2,30.21,NW,313,13.0,22.0,62,0.00,,,0.00,Wunderground v.1.15,2013-10-18 21:23:00,
2013-10-18 16:29:00,44.4,33.7,30.22,NNW,339,12.0,22.0,66,0.00,,,0.00,Wunderground v.1.15,2013-10-18 21:29:00,
2013-10-18 16:34:00,44.0,34.1,30.22,NW,319,12.0,16.0,68,0.00,,,0.00,Wunderground v.1.15,2013-10-18 21:34:00,
2013-10-18 16:40:00,44.3,34.0,30.21,NW,323,11.0,11.0,67,0.00,,,0.00,Wunderground v.1.15,2013-10-18 21:40:00,
2013-10-18 16:45:00,44.9,34.6,30.21,NNW,328,9.0,13.0,67,0.00,,,0.00,Wunderground v.1.15,2013-10-18 21:45:00,
2013-10-18 16:51:00,45.2,34.1,30.21,NW,323,7.0,13.0,65,0.00,,,0.00,Wunderground v.1.15,2013-10-18 21:51:00,
2013-10-18 16:56:00,45.1,34.0,30.21,NNW,343,6.0,13.0,65,0.00,,,0.00,Wunderground v.1.15,2013-10-18 21:56:00,
2013-10-18 17:02:00,45.1,33.6,30.21,NNW,333,5.0,13.0,64,0.00,,,0.00,Wunderground v.1.15,2013-10-18 22:02:00,
2013-10-18 17:07:00,45.5,33.6,30.21,NNW,333,4.0,13.0,63,0.00,,,0.00,Wunderground v.1.15,2013-10-18 22:07:00,
2013-10-18 17:12:00,46.0,32.9,30.21,NW,322,5.0,13.0,60,0.00,,,0.00,Wunderground v.1.15,2013-10-18 22:12:00,
2013-10-18 17:18:00,46.6,33.0,30.21,NW,323,5.0,13.0,59,0.00,,,0.00,Wunderground v.1.15,2013-10-18 22:18:00,
2013-10-18 17:24:00,46.5,32.9,30.21,NW,322,5.0,13.0,59,0.00,,,0.00,Wunderground v.1.15,2013-10-18 22:24:00,
2013-10-18 17:29:00,46.4,33.3,30.21,NW,322,5.0,13.0,60,0.00,,,0.00,Wunderground v.1.15,2013-10-18 22:29:00,
2013-10-18 17:34:00,46.6,33.4,30.21,NW,322,4.0,13.0,60,0.00,,,0.00,Wunderground v.1.15,2013-10-18 22:34:00,
2013-10-18 17:40:00,46.7,32.3,30.21,NW,323,4.0,13.0,57,0.00,,,0.00,Wunderground v.1.15,2013-10-18 22:40:00,
2013-10-18 17:45:00,46.8,32.8,30.21,NW,323,4.0,13.0,58,0.00,,,0.00,Wunderground v.1.15,2013-10-18 22:45:00,
2013-10-18 17:51:00,46.6,32.2,30.21,NW,322,4.0,13.0,57,0.00,,,0.00,Wunderground v.1.15,2013-10-18 22:51:00,
2013-10-18 17:56:00,46.5,32.5,30.21,NW,323,4.0,13.0,58,0.00,,,0.00,Wunderground v.1.15,2013-10-18 22:56:00,
2013-10-18 18:02:00,46.4,32.4,30.21,NW,323,3.0,13.0,58,0.00,,,0.00,Wunderground v.1.15,2013-10-18 23:02:00,
2013-10-18 18:07:00,46.4,33.3,30.21,NW,323,2.0,13.0,60,0.00,,,0.00,Wunderground v.1.15,2013-10-18 23:07:00,
2013-10-18 18:12:00,46.2,33.1,30.21,NW,323,2.0,13.0,60,0.00,,,0.00,Wunderground v.1.15,2013-10-18 23:12:00,
2013-10-18 18:18:00,45.9,33.2,30.21,NW,323,2.0,13.0,61,0.00,,,0.00,Wunderground v.1.15,2013-10-18 23:18:00,
2013-10-18 18:23:00,45.7,33.4,30.21,NW,323,2.0,13.0,62,0.00,,,0.00,Wunderground v.1.15,2013-10-18 23:23:00,
2013-10-18 18:29:00,45.7,33.4,30.21,NW,323,2.0,13.0,62,0.00,,,0.00,Wunderground v.1.15,2013-10-18 23:29:00,
2013-10-18 18:34:00,45.7,33.4,30.21,NW,323,2.0,13.0,62,0.00,,,0.00,Wunderground v.1.15,2013-10-18 23:34:00,
2013-10-18 18:39:00,45.7,33.4,30.22,NW,323,2.0,13.0,62,0.00,,,0.00,Wunderground v.1.15,2013-10-18 23:39:00,
2013-10-18 18:45:00,45.6,32.9,30.21,NW,323,2.0,13.0,61,0.00,,,0.00,Wunderground v.1.15,2013-10-18 23:45:00,
2013-10-18 18:50:00,45.8,32.7,30.22,NW,322,3.0,3.0,60,0.00,,,0.00,Wunderground v.1.15,2013-10-18 23:50:00,
2013-10-18 18:55:00,45.8,31.4,30.22,NW,322,4.0,13.0,57,0.00,,,0.00,Wunderground v.1.15,2013-10-18 23:55:00,
2013-10-18 19:01:00,45.9,31.1,30.22,NW,323,4.0,13.0,56,0.00,,,0.00,Wunderground v.1.15,2013-10-19 00:01:00,
2013-10-18 19:06:00,45.9,31.1,30.22,NW,323,4.0,13.0,56,0.00,,,0.00,Wunderground v.1.15,2013-10-19 00:06:00,
2013-10-18 19:12:00,45.9,31.1,30.23,NW,322,5.0,13.0,56,0.00,,,0.00,Wunderground v.1.15,2013-10-19 00:12:00,
2013-10-18 19:17:00,45.5,30.3,30.23,NW,321,7.0,13.0,55,0.00,,,0.00,Wunderground v.1.15,2013-10-19 00:17:00,
2013-10-18 19:23:00,45.1,30.8,30.23,NW,322,8.0,13.0,57,0.00,,,0.00,Wunderground v.1.15,2013-10-19 00:23:00,
2013-10-18 19:28:00,44.8,30.5,30.23,NW,324,7.0,13.0,57,0.00,,,0.00,Wunderground v.1.15,2013-10-19 00:28:00,
2013-10-18 19:34:00,44.6,30.7,30.23,NW,324,5.0,13.0,58,0.00,,,0.00,Wunderground v.1.15,2013-10-19 00:34:00,
2013-10-18 19:39:00,44.3,30.9,30.23,NW,324,4.0,13.0,59,0.00,,,0.00,Wunderground v.1.15,2013-10-19 00:39:00,
2013-10-18 19:45:00,43.9,30.5,30.23,NW,324,4.0,13.0,59,0.00,,,0.00,Wunderground v.1.15,2013-10-19 00:45:00,
2013-10-18 19:50:00,43.4,30.4,30.23,NW,324,4.0,4.0,60,0.00,,,0.00,Wunderground v.1.15,2013-10-19 00:50:00,
2013-10-18 19:56:00,42.9,30.8,30.23,NW,324,3.0,13.0,62,0.00,,,0.00,Wunderground v.1.15,2013-10-19 00:56:00,
2013-10-18 20:01:00,42.4,30.7,30.23,NW,324,2.0,13.0,63,0.00,,,0.00,Wunderground v.1.15,2013-10-19 01:01:00,
2013-10-18 20:06:00,41.8,30.1,30.23,NW,324,1.0,13.0,63,0.00,,,0.00,Wunderground v.1.15,2013-10-19 01:06:00,
2013-10-18 20:12:00,41.2,29.5,30.23,NW,324,1.0,13.0,63,0.00,,,0.00,Wunderground v.1.15,2013-10-19 01:12:00,
2013-10-18 20:17:00,40.5,29.7,30.23,NW,324,1.0,13.0,65,0.00,,,0.00,Wunderground v.1.15,2013-10-19 01:17:00,
2013-10-18 20:23:00,40.1,29.6,30.23,NW,324,1.0,13.0,66,0.00,,,0.00,Wunderground v.1.15,2013-10-19 01:23:00,
2013-10-18 20:28:00,39.8,29.4,30.23,NW,324,0.0,13.0,66,0.00,,,0.00,Wunderground v.1.15,2013-10-19 01:28:00,
2013-10-18 20:33:00,39.7,29.3,30.23,NW,324,0.0,13.0,66,0.00,,,0.00,Wunderground v.1.15,2013-10-19 01:33:00,
2013-10-18 20:39:00,39.5,29.4,30.23,NW,324,1.0,13.0,67,0.00,,,0.00,Wunderground v.1.15,2013-10-19 01:39:00,
2013-10-18 20:44:00,39.5,29.4,30.23,NW,324,1.0,13.0,67,0.00,,,0.00,Wunderground v.1.15,2013-10-19 01:44:00,
2013-10-18 20:49:00,39.4,29.7,30.23,NW,324,1.0,13.0,68,0.00,,,0.00,Wunderground v.1.15,2013-10-19 01:49:00,
2013-10-18 20:55:00,39.1,29.4,30.23,NW,324,1.0,13.0,68,0.00,,,0.00,Wunderground v.1.15,2013-10-19 01:55:00,
2013-10-18 21:00:00,39.0,29.3,30.23,NW,324,1.0,13.0,68,0.00,,,0.00,Wunderground v.1.15,2013-10-19 02:00:00,
2013-10-18 21:06:00,38.7,29.4,30.23,NW,324,1.0,13.0,69,0.00,,,0.00,Wunderground v.1.15,2013-10-19 02:06:00,
2013-10-18 21:11:00,38.5,29.2,30.23,NW,324,1.0,13.0,69,0.00,,,0.00,Wunderground v.1.15,2013-10-19 02:11:00,
2013-10-18 21:17:00,38.3,29.0,30.23,NW,324,1.0,13.0,69,0.00,,,0.00,Wunderground v.1.15,2013-10-19 02:17:00,
2013-10-18 21:22:00,38.0,29.1,30.23,NW,324,1.0,13.0,70,0.00,,,0.00,Wunderground v.1.15,2013-10-19 02:22:00,
2013-10-18 21:28:00,37.6,29.0,30.23,NW,324,1.0,13.0,71,0.00,,,0.00,Wunderground v.1.15,2013-10-19 02:28:00,
2013-10-18 21:33:00,37.3,28.8,30.23,NW,324,0.0,13.0,71,0.00,,,0.00,Wunderground v.1.15,2013-10-19 02:33:00,
2013-10-18 21:38:00,37.0,28.8,30.23,NW,324,0.0,13.0,72,0.00,,,0.00,Wunderground v.1.15,2013-10-19 02:38:00,
2013-10-18 21:44:00,36.8,28.6,30.23,NW,324,0.0,13.0,72,0.00,,,0.00,Wunderground v.1.15,2013-10-19 02:44:00,
2013-10-18 21:49:00,36.7,28.5,30.23,NW,324,0.0,13.0,72,0.00,,,0.00,Wunderground v.1.15,2013-10-19 02:49:00,
2013-10-18 21:54:00,36.6,28.8,30.23,NW,324,0.0,13.0,73,0.00,,,0.00,Wunderground v.1.15,2013-10-19 02:54:00,
2013-10-18 22:00:00,36.4,28.6,30.23,NW,324,0.0,13.0,73,0.00,,,0.00,Wunderground v.1.15,2013-10-19 03:00:00,
2013-10-18 22:05:00,36.2,28.4,30.23,NW,324,0.0,13.0,73,0.00,,,0.00,Wunderground v.1.15,2013-10-19 03:05:00,
2013-10-18 22:11:00,35.7,27.9,30.23,NW,324,0.0,13.0,73,0.00,,,0.00,Wunderground v.1.15,2013-10-19 03:11:00,
2013-10-18 22:16:00,35.3,27.8,30.23,NW,324,0.0,13.0,74,0.00,,,0.00,Wunderground v.1.15,2013-10-19 03:16:00,
2013-10-18 22:22:00,35.1,28.0,30.23,NW,324,0.0,13.0,75,0.00,,,0.00,Wunderground v.1.15,2013-10-19 03:22:00,
2013-10-18 22:27:00,34.6,27.5,30.23,NW,324,0.0,13.0,75,0.00,,,0.00,Wunderground v.1.15,2013-10-19 03:27:00,
2013-10-18 22:33:00,34.0,27.2,30.23,NW,324,0.0,13.0,76,0.00,,,0.00,Wunderground v.1.15,2013-10-19 03:33:00,
2013-10-18 22:38:00,33.6,26.8,30.23,NW,324,0.0,13.0,76,0.00,,,0.00,Wunderground v.1.15,2013-10-19 03:38:00,
2013-10-18 22:43:00,33.3,26.9,30.23,NW,324,0.0,13.0,77,0.00,,,0.00,Wunderground v.1.15,2013-10-19 03:43:00,
2013-10-18 22:49:00,33.1,27.0,30.23,NW,324,0.0,13.0,78,0.00,,,0.00,Wunderground v.1.15,2013-10-19 03:49:00,
2013-10-18 22:54:00,33.2,27.4,30.23,NW,324,0.0,13.0,79,0.00,,,0.00,Wunderground v.1.15,2013-10-19 03:54:00,
2013-10-18 22:59:00,33.3,27.5,30.23,NW,324,0.0,13.0,79,0.00,,,0.00,Wunderground v.1.15,2013-10-19 03:59:00,
2013-10-18 23:01:00,33.3,27.5,30.23,NW,324,0.0,13.0,79,0.00,,,0.00,Wunderground v.1.15,2013-10-19 04:01:00,
2013-10-18 23:02:00,33.3,27.5,30.23,NW,324,0.0,13.0,79,0.00,,,0.00,Wunderground v.1.15,2013-10-19 04:02:00,
2013-10-18 23:03:00,33.3,27.5,30.23,NW,324,0.0,13.0,79,0.00,,,0.00,Wunderground v.1.15,2013-10-19 04:03:00,
2013-10-18 23:04:00,33.3,27.5,30.23,NW,324,0.0,13.0,79,0.00,,,0.00,Wunderground v.1.15,2013-10-19 04:04:00,
2013-10-18 23:05:00,33.2,27.4,30.23,NW,324,0.0,13.0,79,0.00,,,0.00,Wunderground v.1.15,2013-10-19 04:05:00,
2013-10-18 23:10:00,33.0,27.2,30.23,NW,324,0.0,13.0,79,0.00,,,0.00,Wunderground v.1.15,2013-10-19 04:10:00,
2013-10-18 23:11:00,33.0,27.2,30.23,NW,324,0.0,13.0,79,0.00,,,0.00,Wunderground v.1.15,2013-10-19 04:11:00,
2013-10-18 23:17:00,32.8,27.0,30.23,NW,324,0.0,13.0,79,0.00,,,0.00,Wunderground v.1.15,2013-10-19 04:17:00,
2013-10-18 23:22:00,32.6,26.8,30.23,NW,324,0.0,13.0,79,0.00,,,0.00,Wunderground v.1.15,2013-10-19 04:22:00,
2013-10-18 23:27:00,32.3,26.5,30.22,NW,324,0.0,13.0,79,0.00,,,0.00,Wunderground v.1.15,2013-10-19 04:27:00,
2013-10-18 23:33:00,32.3,26.8,30.22,NW,324,0.0,13.0,80,0.00,,,0.00,Wunderground v.1.15,2013-10-19 04:33:00,
2013-10-18 23:38:00,32.3,26.5,30.22,NW,324,0.0,13.0,79,0.00,,,0.00,Wunderground v.1.15,2013-10-19 04:38:00,
2013-10-18 23:43:00,32.3,26.5,30.22,NW,324,0.0,13.0,79,0.00,,,0.00,Wunderground v.1.15,2013-10-19 04:43:00,
2013-10-18 23:49:00,32.4,26.9,30.22,NW,324,0.0,13.0,80,0.00,,,0.00,Wunderground v.1.15,2013-10-19 04:49:00,
2013-10-18 23:54:00,32.5,27.0,30.21,NW,324,0.0,13.0,80,0.00,,,0.00,Wunderground v.1.15,2013-10-19 04:54:00,